User: anonymous   Login
Location: Laterina
(43.5167°N, 11.7167°E)
Time: 02:04:05
(UTC+00:00)
Language:

Cosmos 1125 Rocket - Orbit

View from above orbital plane
View from above orbital plane
View from above satellite
View from above satellite

Ground track
Ground track

The orbit data is extracted from the following two-line orbital elements,

1 11511U 79078B   20338.18639704  .00000067  00000-0  31505-4 0  9995
2 11511  74.0344 149.9709 0014574  84.2751 276.0063 14.36908322160010
Epoch (UTC): 03 December 2020 04:28:24
Eccentricity: 0.0014574
inclination: 74.0344°
perigee height: 758 km
apogee height: 779 km
right ascension of ascending node: 149.9709°
argument of perigee: 84.2751°
revolutions per day: 14.36908322
mean anomaly at epoch: 276.0063°
orbit number at epoch: 16001

The dashed part of the orbit path shows where the satellite is in the earth's shadow,  

DLR